GW5518 Weather Reports


time (UTC)temp
C
wind
direction
speed
KPH
gust
KPH
rain 1hr
cm
rain 24hr
cm
rain mn
cm
humidity
%
barometer
mb
20260906210029 31 156 16.1 22.5 0.00 0.00 0.00 38 1016.4
20260906204528 30 156 16.1 27.4 0.00 0.00 0.00 38 1016.7
20260906203027 30 189 9.7 29.0 0.00 0.00 0.00 38 1016.9
20260906201528 31 130 14.5 25.7 0.00 0.00 0.00 37 1017.0
20260906200027 30 139 16.1 25.7 0.00 0.00 0.00 39 1017.1
20260906194529 30 140 11.3 29.0 0.00 0.00 0.00 39 1017.2
20260906193027 30 198 9.7 27.4 0.00 0.00 0.00 38 1017.4
20260906191528 30 205 16.1 24.1 0.00 0.00 0.00 40 1017.6
20260906190027 30 151 16.1 24.1 0.00 0.00 0.00 40 1017.6
20260906184535 29 203 16.1 35.4 0.00 0.00 0.00 41 1017.7
20260906183030 28 182 12.9 27.4 0.00 0.00 0.00 42 1017.9
20260906181531 29 215 16.1 27.4 0.00 0.00 0.00 41 1018.0
20260906180027 28 224 14.5 22.5 0.00 0.00 0.00 44 1018.2
20260906174531 28 198 19.3 25.7 0.00 0.00 0.00 43 1018.5
20260906173030 28 164 16.1 25.7 0.00 0.00 0.00 44 1018.6
20260906171531 27 202 14.5 24.1 0.00 0.00 0.00 44 1019.1
20260906170058 27 194 16.1 25.7 0.00 0.00 0.00 45 1019.2
20260906164533 26 202 16.1 27.4 0.00 0.00 0.00 46 1019.5
20260906163031 26 226 12.9 24.1 0.00 0.00 0.00 48 1019.5
20260906161533 25 188 17.7 25.7 0.00 0.00 0.00 48 1019.4
20260906160030 25 208 19.3 27.4 0.00 0.00 0.00 50 1019.4
20260906154535 23 206 16.1 25.7 0.00 0.00 0.00 53 1019.3
20260906153039 23 180 16.1 27.4 0.00 0.00 0.00 54 1019.3
20260906151533 23 171 14.5 27.4 0.00 0.00 0.00 55 1019.3
20260906150032 22 207 16.1 29.0 0.00 0.00 0.00 59 1019.5
20260906144537 21 174 19.3 33.8 0.00 0.00 0.00 61 1019.5
20260906143036 20 199 20.9 37.0 0.00 0.00 0.00 63 1019.6
20260906141537 19 188 22.5 29.0 0.00 0.00 0.00 65 1019.5
20260906140037 19 191 17.7 30.6 0.00 0.00 0.00 66 1019.4
20260906134530 18 202 19.3 29.0 0.00 0.00 0.00 67 1019.4
20260906133030 18 192 19.3 30.6 0.00 0.00 0.00 67 1019.6
20260906131531 18 188 19.3 32.2 0.00 0.00 0.00 68 1019.6
20260906130033 17 188 14.5 22.5 0.00 0.00 0.00 70 1019.6
20260906124541 17 188 19.3 25.7 0.00 0.00 0.00 72 1019.5
20260906123104 16 211 19.3 27.4 0.00 0.00 0.00 72 1019.5
20260906121530 17 198 14.5 24.1 0.00 0.00 0.00 70 1019.3
20260906120031 17 196 17.7 29.0 0.00 0.00 0.00 68 1019.3
20260906114534 17 180 19.3 30.6 0.00 0.00 0.00 68 1019.1
20260906113037 17 175 17.7 29.0 0.00 0.00 0.00 69 1019.1
20260906111532 17 190 22.5 30.6 0.00 0.00 0.00 71 1019.2
20260906110035 17 189 20.9 29.0 0.00 0.00 0.00 71 1019.2
20260906104535 17 189 22.5 30.6 0.00 0.00 0.00 73 1019.1
20260906103034 17 200 22.5 33.8 0.00 0.00 0.00 73 1019.2
20260906101531 17 208 17.7 24.1 0.00 0.00 0.00 72 1019.1
20260906100032 17 205 17.7 24.1 0.00 0.00 0.00 72 1018.9
20260906094535 17 193 9.7 16.1 0.00 0.00 0.00 73 1019.1
20260906093030 16 194 9.7 12.9 0.00 0.00 0.00 75 1018.9
20260906091538 17 189 9.7 16.1 0.00 0.00 0.00 69 1019.1
20260906090033 18 179 9.7 19.3 0.00 0.00 0.00 66 1019.0
20260906084535 18 179 14.5 20.9 0.00 0.00 0.00 64 1018.7
20260906083036 18 161 16.1 27.4 0.00 0.00 0.00 66 1018.4
20260906081536 18 161 20.9 30.6 0.00 0.00 0.00 68 1018.5
20260906080033 18 184 22.5 30.6 0.00 0.00 0.00 69 1018.6
20260906074538 19 183 22.5 33.8 0.00 0.00 0.00 1018.7
20260906073036 19 188 25.7 40.2 0.00 0.00 0.00 70 1018.7
20260906071532 19 168 20.9 32.2 0.00 0.00 0.00 69 1018.7
20260906070032 19 155 17.7 27.4 0.00 0.00 0.00 69 1018.8
20260906064536 20 172 20.9 33.8 0.00 0.00 0.00 69 1018.8
20260906063013 20 140 22.5 32.2 0.00 0.00 0.00 72 1018.9
20260906061510 20 165 20.9 29.0 0.00 0.00 0.00 72 1019.2
20260906060012 20 183 19.3 27.4 0.00 0.00 0.00 71 1019.2
20260906054510 20 163 19.3 32.2 0.00 0.00 0.00 69 1019.2
20260906053022 20 159 20.9 30.6 0.00 0.00 0.00 68 1018.8
20260906051509 20 156 17.7 25.7 0.00 0.00 0.00 67 1018.5
20260906050012 20 146 14.5 24.1 0.00 0.00 0.00 66 1018.5
20260906044510 20 135 17.7 25.7 0.00 0.00 0.00 66 1018.8
20260906043023 20 105 17.7 25.7 0.00 0.00 0.00 66 1018.9
20260906041513 20 132 14.5 22.5 0.00 0.00 0.00 67 1018.8
20260906040013 20 138 19.3 25.7 0.00 0.00 0.00 67 1018.8
20260906034512 20 128 19.3 27.4 0.00 0.00 0.00 68 1018.9
20260906033019 20 128 17.7 30.6 0.00 0.00 0.00 69 1018.8
20260906031515 20 123 19.3 30.6 0.00 0.00 0.00 70 1018.7
20260906030019 21 124 16.1 30.6 0.00 0.00 0.00 73 1018.5
20260906024514 21 144 25.7 40.2 0.00 0.00 0.00 71 1019.1
20260906023012 23 150 27.4 43.5 0.00 0.00 0.00 61 1018.9
20260906021514 23 159 16.1 29.0 0.00 0.00 0.00 57 1018.5
20260906020014 23 161 17.7 25.7 0.00 0.00 0.00 56 1018.2
20260906014514 22 166 11.3 19.3 0.00 0.00 0.00 61 1017.9
20260906013023 21 193 8.0 11.3 0.00 0.00 0.00 65 1017.9
20260906011515 22 198 8.0 19.3 0.00 0.00 0.00 60 1017.7
20260906010017 23 173 11.3 22.5 0.00 0.00 0.00 57 1017.8
20260906004520 24 188 11.3 24.1 0.00 0.00 0.00 53 1017.9
20260906003017 25 135 24.1 32.2 0.00 0.00 0.00 54 1018.0
20260906001518 25 119 20.9 33.8 0.00 0.00 0.00 54 1017.8
20260906000034 26 111 27.4 38.6 0.00 0.00 0.00 54 1017.5
20260905234514 28 115 19.3 35.4 0.00 0.00 0.00 51 1017.6
20260905233017 28 123 17.7 27.4 0.00 0.00 0.00 41 1017.9
20260905231518 27 103 17.7 30.6 0.00 0.00 0.00 48 1017.8
20260905230018 27 105 16.1 27.4 0.00 0.00 0.00 49 1017.7
20260905224517 26 98 17.7 30.6 0.00 0.00 0.00 53 1017.5
20260905223035 27 69 12.9 27.4 0.00 0.00 0.00 49 1017.7
20260905221534 31 51 16.1 27.4 0.00 0.00 0.00 25 1017.5
20260905220036 32 44 16.1 25.7 0.00 0.00 0.00 23 1017.6
20260905214536 32 9 9.7 19.3 0.00 0.00 0.00 22 1017.4
20260905213034 31 9 6.4 20.9 0.00 0.00 0.00 23 1017.1
20260905211546 32 34 9.7 20.9 0.00 0.00 0.00 22 1016.8